1496221200.41,34769,19.75,74276.8,14.13,-2.07,-3.71,0,*45
1496221201.64,34770,19.75,74282.0,14.11,-1.91,-3.35,0,*43
1496221202.88,34771,19.75,74280.0,14.11,-1.47,-2.79,0,*40
1496221204.12,34772,19.75,74286.0,14.11,-1.47,-2.99,0,*4D
1496221205.39,34773,19.69,74288.3,14.11,-1.47,-2.71,0,*4A
1496221206.61,34774,19.69,74290.0,14.09,-2.47,-2.99,0,*41
1496221207.85,34775,19.69,74290.8,14.11,-3.83,-3.47,0,*42
1496221209.06,34776,19.75,74296.3,14.13,-3.71,-2.43,0,*4B
1496221210.27,34777,19.75,74292.8,14.13,-3.43,-1.29,0,*44
1496221211.51,34778,19.75,74290.5,14.15,-2.51,-0.69,0,*7A
1496221212.74,34779,19.75,74292.3,14.15,-3.83,-2.31,0,*4A
1496221214.0,34780,19.75,74288.0,14.15,-5.23,-3.71,0,*45
1496221215.21,34781,19.75,74288.8,14.17,-5.69,-4.45,0,*48
1496221216.43,34782,19.69,74282.3,14.17,-5.35,-4.01,0,*42
1496221217.65,34783,19.75,74288.3,14.17,-4.13,-2.71,0,*47
1496221218.86,34784,19.75,74288.8,14.15,-4.09,-3.15,0,*4A
1496221220.08,34785,19.75,74284.3,14.15,-3.19,-2.43,0,*4F
1496221221.35,34786,19.75,74280.0,14.15,-2.63,-2.51,0,*43
1496221222.6,34787,19.75,74278.0,14.15,-3.91,-4.81,0,*45
1496221223.84,34788,19.75,74298.5,14.13,-3.71,-5.73,0,*4E
1496221225.08,34789,19.75,74292.3,14.15,-5.47,-7.91,0,*44
1496221226.33,34790,19.75,74288.8,14.13,-6.97,-9.53,0,*44
1496221227.57,34791,19.69,74282.0,14.11,-8.75,-10.79,0,*75
1496221228.83,34792,19.75,74284.3,14.09,-10.63,-11.59,0,*42
1496221230.08,34793,19.75,74282.5,14.09,-11.63,-11.89,0,*4F
1496221231.31,34794,19.75,74278.0,14.05,-9.41,-8.89,0,*45
1496221232.52,34795,19.69,74262.5,14.09,-8.29,-7.39,0,*43
1496221233.76,34796,19.75,74264.3,14.11,-9.11,-8.33,0,*46
1496221234.97,34797,19.75,74250.8,14.11,-8.97,-8.71,0,*4E
1496221236.21,34798,19.75,74254.8,14.15,-10.01,-9.53,0,*72
1496221237.44,34799,19.69,74252.5,14.15,-13.69,-12.97,0,*4C
1496221238.7,34800,19.75,74274.5,14.13,-15.89,-14.83,0,*4E
1496221239.97,34801,19.75,74284.3,14.11,-13.33,-11.37,0,*40
1496221241.21,34802,19.75,74286.3,14.11,-11.51,-9.67,0,*79
1496221242.44,34803,19.75,74286.5,14.13,-11.45,-9.37,0,*7A
1496221243.67,34804,19.75,74288.5,14.15,-11.45,-9.19,0,*77
1496221244.88,34805,19.75,74290.3,14.15,-10.85,-8.29,0,*79
1496221246.14,34806,19.75,74294.3,14.19,-10.75,-7.95,0,*71
1496221247.35,34807,19.75,74296.5,14.17,-15.63,-12.47,0,*47
1496221248.58,34808,19.75,74296.5,14.17,-14.33,-11.07,0,*4B
1496221249.8,34809,19.75,74292.8,14.13,-11.23,-7.91,0,*72
1496221251.04,34810,19.75,74292.8,14.15,-9.49,-6.51,0,*44
1496221252.27,34811,19.75,74292.0,14.15,-9.31,-6.81,0,*47
1496221253.48,34812,19.75,74292.3,14.15,-8.85,-6.69,0,*4C
1496221254.73,34813,19.75,74296.3,14.19,-7.23,-5.31,0,*4C
1496221255.94,34814,19.75,74296.5,14.23,-8.29,-6.93,0,*4C
1496221257.17,34815,19.69,74294.0,14.23,-8.55,-7.43,0,*4A
1496221258.44,34816,19.75,74292.8,14.25,-8.11,-7.31,0,*4A
1496221259.66,34817,19.69,74296.0,14.25,-7.83,-7.15,0,*49
1496221260.88,34818,19.75,74294.5,14.25,-9.89,-9.05,0,*4D
1496221262.09,34819,19.75,74296.0,14.25,-10.09,-9.27,0,*7C
1496221263.31,34820,19.75,74296.0,14.25,-9.75,-8.63,0,*44
1496221264.51,34821,19.75,74296.8,14.23,-10.19,-8.41,0,*71
1496221265.73,34822,19.75,74294.8,14.23,-10.31,-7.91,0,*7A
1496221266.93,34823,19.75,74296.0,14.23,-9.31,-6.13,0,*48
1496221268.15,34824,19.75,74298.3,14.25,-6.81,-2.87,0,*44
1496221269.37,34825,19.75,74294.8,14.31,-5.89,-1.21,0,*44
1496221270.64,34826,19.75,74296.5,14.37,-6.63,-1.05,0,*40
1496221271.87,34827,19.75,74300.8,14.43,-6.27,0.29,0,*50
1496221273.09,34828,19.75,74296.8,14.49,-8.89,-1.63,0,*4D
1496221274.34,34829,19.75,74298.3,14.49,-11.19,-2.75,0,*79
1496221275.57,34830,19.75,74306.8,14.47,-9.83,-1.13,0,*46
1496221276.78,34831,19.75,74308.3,14.53,-8.97,0.41,0,*5D
1496221278.04,34832,19.75,74300.8,14.55,-7.73,2.21,0,*69
1496221279.28,34833,19.75,74300.0,14.57,-7.35,2.39,0,*61
1496221280.54,34834,19.75,74298.3,14.59,-6.63,3.37,0,*65
1496221281.8,34835,19.75,74298.8,14.63,-5.81,4.05,0,*64
1496221283.02,34836,19.75,74290.8,14.67,-4.61,5.07,0,*6F
1496221284.28,34837,19.75,74290.3,14.71,-4.81,4.79,0,*6F
1496221285.49,34838,19.75,74288.3,14.75,-6.47,2.95,0,*68
1496221286.72,34839,19.75,74286.0,14.75,-6.23,2.91,0,*6F
1496221287.97,34840,19.75,74288.3,14.75,-4.77,3.79,0,*65
1496221289.2,34841,19.75,74288.8,14.75,-3.83,3.89,0,*67
1496221290.39,34842,19.75,74286.8,14.77,-3.19,3.89,0,*65
1496221291.61,34843,19.75,74284.0,14.75,-1.71,4.57,0,*6E
1496221292.78,34844,19.75,74284.8,14.77,0.09,5.67,0,*4A
1496221294.01,34845,19.75,74286.0,14.81,0.87,5.73,0,*71
1496221295.25,34846,19.75,74286.3,14.83,0.87,5.19,0,*7C
1496221296.42,34847,19.75,74286.0,14.85,-0.07,3.85,0,*6D
1496221297.65,34848,19.75,74284.8,14.83,-1.67,2.01,0,*6E
1496221298.86,34849,19.75,74282.8,14.83,-1.55,1.83,0,*67
1496221300.1,34850,19.69,74280.8,14.81,-1.01,2.09,0,*6D
1496221301.32,34851,19.75,74284.3,14.81,-1.13,1.83,0,*6E
1496221302.56,34852,19.75,74280.5,14.79,0.33,3.15,0,*79
1496221303.77,34853,19.75,74286.8,14.77,0.55,3.29,0,*79
1496221304.98,34854,19.75,74286.0,14.77,1.13,3.59,0,*4A
1496221306.24,34855,19.75,74284.3,14.75,0.79,3.41,0,*7D
1496221307.48,34856,19.75,74288.3,14.75,0.67,3.07,0,*73
1496221308.71,34857,19.75,74282.5,14.75,-0.07,2.43,0,*68
1496221309.93,34858,19.75,74278.8,14.69,0.59,3.23,0,*7B
1496221311.17,34859,19.75,74280.0,14.69,0.83,3.49,0,*71
1496221312.37,34860,19.75,74280.0,14.67,1.75,4.53,0,*41
1496221313.61,34861,19.75,74280.8,14.67,2.51,5.23,0,*43
1496221314.84,34862,19.75,74286.8,14.65,2.77,5.51,0,*43
1496221316.07,34863,19.75,74286.8,14.67,3.29,5.89,0,*4F
1496221317.3,34864,19.75,74286.8,14.67,3.67,6.21,0,*43
1496221318.51,34865,19.75,74284.3,14.67,2.65,5.11,0,*41
1496221319.71,34866,19.75,74282.3,14.67,3.55,5.71,0,*46
1496221320.92,34867,19.75,74290.8,14.65,3.93,5.93,0,*43
1496221322.16,34868,19.75,74290.0,14.65,3.37,5.01,0,*49
1496221323.4,34869,19.75,74290.5,14.63,3.25,4.75,0,*4F
1496221324.63,34870,19.75,74290.0,14.63,3.29,4.59,0,*45
1496221325.83,34871,19.75,74290.3,14.61,2.89,4.19,0,*49
1496221327.04,34872,19.75,74294.3,14.57,3.33,4.41,0,*42
1496221328.27,34873,19.75,74292.8,14.53,3.03,4.01,0,*40
1496221329.51,34874,19.75,74300.5,14.53,2.69,3.45,0,*4D
1496221330.71,34875,19.75,74292.8,14.47,2.85,3.59,0,*46
1496221331.92,34876,19.75,74288.0,14.47,4.19,4.97,0,*43
1496221333.15,34877,19.75,74298.0,14.45,4.63,5.33,0,*42
1496221334.35,34878,19.75,74296.8,14.45,4.41,4.85,0,*41
1496221335.59,34879,19.75,74300.8,14.43,4.71,4.97,0,*46
1496221336.78,34880,19.75,74298.5,14.39,4.07,4.11,0,*42
1496221338.01,34881,19.75,74298.3,14.41,4.59,4.45,0,*46
1496221339.23,34882,19.75,74298.3,14.39,4.71,4.41,0,*44
1496221340.43,34883,19.75,74300.0,14.39,4.41,3.53,0,*42
1496221341.6,34884,19.75,74298.8,14.35,4.49,3.29,0,*4C
1496221342.81,34885,19.75,74296.5,14.35,4.05,2.27,0,*4A
1496221344.02,34886,19.75,74300.8,14.35,3.71,1.79,0,*45
1496221345.23,34887,19.75,74308.5,14.31,3.85,1.37,0,*41
1496221346.51,34888,19.75,74310.0,14.25,1.37,-1.35,0,*6F
1496221347.77,34889,19.75,74302.3,14.21,0.25,-2.71,0,*5B
1496221349.0,34890,19.75,74290.5,14.17,0.25,-2.75,0,*52
1496221350.21,34891,19.75,74290.8,14.13,-2.07,-5.35,0,*4B
1496221351.43,34892,19.75,74286.8,14.03,-2.43,-5.51,0,*4B
1496221352.67,34893,19.75,74278.3,13.99,-0.85,-4.13,0,*71
1496221353.89,34894,19.75,74282.5,13.97,-1.01,-4.41,0,*42
1496221355.16,34895,19.75,74284.0,13.95,-1.13,-4.81,0,*4E
1496221356.43,34896,19.75,74284.8,13.95,-0.97,-4.77,0,*79
1496221357.7,34897,19.75,74286.5,13.95,-3.51,-7.39,0,*48
1496221358.93,34898,19.75,74282.8,13.91,-7.19,-10.93,0,*7D
1496221360.15,34899,19.75,74276.0,13.87,-6.85,-9.45,0,*4C
1496221361.36,34900,19.75,74276.8,13.87,-6.89,-8.51,0,*45
1496221362.58,34901,19.75,74280.8,13.89,-4.99,-5.31,0,*42
1496221363.83,34902,19.75,74280.0,13.91,-4.33,-2.55,0,*4D
1496221365.06,34903,19.75,74278.5,13.97,-4.69,-1.13,0,*44
1496221366.26,34904,19.75,74282.3,14.01,-6.69,-1.71,0,*4D
1496221367.48,34905,19.75,74290.8,14.05,-6.23,-0.15,0,*75
1496221368.71,34906,19.75,74294.0,14.13,-7.43,-0.27,0,*77
1496221369.96,34907,19.75,74294.3,14.15,-8.03,0.17,0,*55
1496221371.17,34908,19.75,74298.8,14.19,-9.79,-0.73,0,*75
1496221372.4,34909,19.75,74300.5,14.21,-10.93,-1.21,0,*75
1496221373.65,34910,19.75,74306.3,14.21,-12.83,-2.43,0,*79
1496221374.91,34911,19.75,74296.5,14.17,-12.75,-1.99,0,*70
1496221376.09,34912,19.75,74286.0,14.13,-10.89,-0.07,0,*70
1496221377.33,34913,19.75,74268.8,14.13,-9.37,0.71,0,*50
1496221378.53,34914,19.75,74276.5,14.11,-8.29,1.01,0,*6D
1496221379.75,34915,19.75,74268.3,14.05,-8.89,-1.09,0,*46
1496221380.96,34916,19.75,74256.0,14.03,-4.09,2.27,0,*65
1496221382.19,34917,19.75,74260.8,13.99,-2.19,2.25,0,*65
1496221383.43,34918,19.75,74270.0,14.01,-1.47,1.25,0,*67
1496221384.66,34919,19.75,74280.3,13.99,-0.81,0.51,0,*69
1496221385.91,34920,19.75,74286.5,13.99,-1.17,-1.09,0,*4C
1496221387.15,34921,19.75,74286.0,13.95,-1.13,-1.63,0,*49
1496221388.38,34922,19.75,74290.0,13.91,-0.29,-0.97,0,*4C
1496221389.62,34923,19.75,74290.5,13.93,-0.93,-1.35,0,*77
1496221390.84,34924,19.75,74288.0,13.91,-2.19,-2.15,0,*43
1496221392.06,34925,19.75,74290.0,13.89,-2.27,-1.39,0,*4B
1496221393.31,34926,19.75,74288.3,13.89,-3.47,-1.83,0,*4E
1496221394.53,34927,19.75,74290.0,13.89,-4.37,-1.05,0,*41
1496221395.73,34928,19.75,74286.8,13.85,-4.45,0.09,0,*67
1496221396.94,34929,19.75,74286.5,13.87,-4.37,0.91,0,*50
1496221398.12,34930,19.75,74286.0,13.87,-3.23,2.65,0,*63
1496221399.33,34931,19.75,74286.0,13.87,-2.35,3.49,0,*6B
1496221400.55,34932,19.75,74284.3,13.89,-2.55,3.29,0,*66
1496221401.76,34933,19.75,74288.5,13.89,-4.37,1.25,0,*6B
1496221402.97,34934,19.75,74290.5,13.89,-4.65,0.41,0,*58
1496221404.21,34935,19.75,74290.0,13.81,-4.21,0.21,0,*57
1496221405.44,34936,19.75,74284.5,13.81,-3.43,0.43,0,*53
1496221406.71,34937,19.75,74284.8,13.77,-1.87,1.97,0,*69
1496221407.95,34938,19.75,74284.0,13.77,-1.33,2.77,0,*64
1496221409.22,34939,19.75,74290.3,13.77,-1.87,2.73,0,*6E
1496221410.49,34940,19.75,74290.8,13.77,-3.51,1.21,0,*6D
1496221411.72,34941,19.75,74290.5,13.69,-5.35,0.17,0,*53
1496221412.99,34942,19.75,74288.8,13.65,-5.23,0.47,0,*5E
1496221414.21,34943,19.75,74292.8,13.65,-2.79,2.65,0,*65
1496221415.45,34944,19.75,74292.8,13.59,-2.03,2.89,0,*62
1496221416.66,34945,19.75,74294.8,13.59,-2.55,2.35,0,*67
1496221417.89,34946,19.75,74288.0,13.55,-3.11,1.47,0,*6F
1496221419.16,34947,19.75,74288.8,13.51,-2.07,2.13,0,*6E
1496221420.37,34948,19.75,74294.0,13.47,-1.79,1.83,0,*66
1496221421.55,34949,19.75,74286.8,13.45,-0.61,2.65,0,*56
1496221422.75,34950,19.75,74284.5,13.45,0.97,3.75,0,*7A
1496221423.96,34951,19.75,74282.3,13.45,2.31,4.63,0,*45
1496221425.21,34952,19.75,74276.3,13.43,3.37,5.27,0,*46
1496221426.43,34953,19.75,74280.5,13.45,3.15,4.57,0,*47
1496221427.66,34954,19.75,74282.3,13.43,3.85,5.05,0,*49
1496221428.89,34955,19.75,74282.8,13.43,3.37,4.23,0,*44
1496221430.08,34956,19.75,74282.0,13.43,3.63,4.19,0,*4F
1496221431.29,34957,19.75,74284.8,13.37,4.79,5.15,0,*4C
1496221432.49,34958,19.75,74284.3,13.37,2.35,2.55,0,*4E
1496221433.7,34959,19.75,74286.0,13.33,0.95,0.95,0,*4D
1496221434.91,34960,19.75,74278.5,13.29,1.89,2.27,0,*4B
1496221436.09,34961,19.75,74276.8,13.25,1.75,1.83,0,*48
1496221437.35,34962,19.75,74278.3,13.21,2.89,2.89,0,*46
1496221438.55,34963,19.75,74272.5,13.19,2.95,2.85,0,*4D
1496221439.78,34964,19.75,74276.8,13.13,3.71,3.59,0,*4B
1496221441.02,34965,19.75,74280.3,13.13,3.03,2.91,0,*4A
1496221442.26,34966,19.75,74282.0,13.09,3.67,3.59,0,*45
1496221443.49,34967,19.75,74282.3,13.09,3.45,3.25,0,*4F
1496221444.73,34968,19.75,74282.8,13.05,3.41,3.29,0,*44
1496221445.95,34969,19.75,74280.3,13.03,3.75,3.59,0,*43
1496221447.16,34970,19.75,74282.0,13.03,3.79,3.63,0,*4E
1496221448.37,34971,19.75,74284.8,12.99,3.85,3.71,0,*4D
1496221449.59,34972,19.75,74286.0,12.99,2.77,2.61,0,*42
1496221450.83,34973,19.75,74288.0,12.97,3.07,2.95,0,*40
1496221452.03,34974,19.75,74286.3,12.89,3.97,3.85,0,*41
1496221453.26,34975,19.75,74284.3,12.91,3.75,3.55,0,*48
1496221454.47,34976,19.75,74284.8,12.89,3.85,3.75,0,*4F
1496221455.66,34977,19.75,74284.0,12.89,3.93,3.93,0,*41
1496221456.89,34978,19.75,74284.3,12.87,3.33,3.25,0,*47
1496221458.09,34979,19.75,74284.8,12.85,4.01,3.89,0,*44
1496221459.35,34980,19.75,74286.0,12.83,2.85,2.59,0,*42
1496221460.55,34981,19.75,74284.0,12.81,2.43,2.27,0,*42
1496221461.78,34982,19.75,74288.8,12.77,2.85,2.77,0,*47
1496221463.04,34983,19.75,74288.3,12.75,3.71,3.67,0,*4E
1496221464.27,34984,19.75,74284.8,12.73,1.63,1.71,0,*4B
1496221465.51,34985,19.75,74280.5,12.67,2.31,2.43,0,*49
1496221466.75,34986,19.75,74280.3,12.67,3.15,3.25,0,*4C
1496221467.97,34987,19.75,74282.5,12.67,4.23,4.41,0,*4A
1496221469.19,34988,19.75,74278.5,12.65,4.89,5.01,0,*42
1496221470.43,34989,19.75,74274.5,12.67,5.23,5.27,0,*44
1496221471.65,34990,19.75,74276.5,12.67,5.11,5.11,0,*48
1496221472.86,34991,19.75,74280.8,12.67,4.33,4.45,0,*48
1496221474.07,34992,19.75,74280.5,12.67,3.81,3.63,0,*46
1496221475.33,34993,19.75,74284.3,12.63,2.43,2.51,0,*4C
1496221476.54,34994,19.75,74284.5,12.61,3.25,3.19,0,*45
1496221477.72,34995,19.75,74284.5,12.59,3.59,3.59,0,*40
1496221478.95,34996,19.75,74284.8,12.59,3.49,3.41,0,*4B
1496221480.21,34997,19.75,74286.8,12.57,3.19,3.11,0,*44
1496221481.41,34998,19.75,74290.5,12.55,3.25,3.19,0,*4E
1496221482.67,34999,19.75,74292.0,12.53,3.23,3.15,0,*43
1496221483.92,35000,19.75,74288.8,12.53,3.45,3.33,0,*4F
1496221485.15,35001,19.75,74288.5,12.51,3.33,3.19,0,*45
1496221486.38,35002,19.75,74284.5,12.49,3.81,3.71,0,*48
1496221487.59,35003,19.75,74288.0,12.49,4.19,4.11,0,*4E
1496221488.82,35004,19.75,74290.0,12.45,3.49,3.25,0,*47
1496221490.08,35005,19.75,74296.8,12.45,2.77,2.73,0,*48
1496221491.34,35006,19.75,74292.0,12.41,2.85,2.81,0,*4F
1496221492.59,35007,19.75,74290.8,12.41,3.19,3.23,0,*43
1496221493.83,35008,19.75,74288.3,12.37,3.25,3.41,0,*46
1496221495.08,35009,19.75,74294.5,12.37,3.19,3.19,0,*45
1496221496.29,35010,19.75,74292.3,12.37,2.99,2.91,0,*45
1496221497.52,35011,19.75,74292.5,12.35,3.97,4.05,0,*42
1496221498.7,35012,19.75,74294.5,12.35,4.49,4.57,0,*42
1496221499.91,35013,19.75,74292.3,12.33,4.45,4.49,0,*46
1496221501.14,35014,19.75,74294.8,12.35,3.53,3.53,0,*4B
1496221502.39,35015,19.75,74298.0,12.33,3.19,3.19,0,*4C
1496221503.63,35016,19.75,74294.5,12.33,3.11,2.99,0,*4E
1496221504.85,35017,19.75,74298.5,12.29,2.35,2.21,0,*40
1496221506.09,35018,19.75,74300.3,12.29,2.65,2.59,0,*45
1496221507.29,35019,19.75,74298.8,12.23,3.33,3.25,0,*46
1496221508.54,35020,19.75,74300.3,12.21,3.33,3.23,0,*48
1496221509.78,35021,19.75,74298.5,12.19,3.07,3.07,0,*43
1496221511.01,35022,19.75,74296.8,12.19,3.23,3.19,0,*49
1496221512.22,35023,19.75,74304.5,12.15,3.33,3.25,0,*4A
1496221513.45,35024,19.75,74302.5,12.15,2.77,2.73,0,*4E
1496221514.66,35025,19.75,74302.3,12.11,3.07,2.95,0,*45
1496221515.89,35026,19.75,74300.0,12.11,3.19,3.11,0,*44
1496221517.07,35027,19.75,74296.5,12.11,2.35,2.27,0,*4E
1496221518.29,35028,19.75,74306.3,12.07,3.53,3.53,0,*45
1496221519.55,35029,19.75,74304.3,12.05,2.43,2.21,0,*42
1496221520.81,35030,19.75,74306.8,12.01,2.51,2.17,0,*48
1496221522.07,35031,19.75,74304.5,11.97,2.47,2.21,0,*47
1496221523.3,35032,19.75,74304.0,11.97,1.97,1.75,0,*48
1496221524.5,35033,19.75,74304.8,11.93,1.75,1.67,0,*42
1496221525.72,35034,19.75,74304.5,11.89,0.63,0.55,0,*48
1496221526.94,35035,19.75,74304.0,11.85,0.29,0.25,0,*4C
1496221528.17,35036,19.75,74300.5,11.79,1.79,1.55,0,*4E
1496221529.43,35037,19.75,74300.5,11.75,1.25,0.91,0,*73
1496221530.63,35038,19.75,74300.8,11.69,0.71,0.43,0,*4E
1496221531.88,35039,19.75,74306.3,11.67,0.51,0.33,0,*44
1496221533.12,35040,19.75,74304.8,11.61,0.47,0.25,0,*4C
1496221534.37,35041,19.75,74304.5,11.61,0.87,0.71,0,*40
1496221535.62,35042,19.75,74302.0,11.57,0.95,0.83,0,*48
1496221536.88,35043,19.75,74294.8,11.53,2.59,2.59,0,*4A
1496221538.11,35044,19.75,74296.0,11.51,4.01,3.97,0,*47
1496221539.34,35045,19.75,74294.3,11.51,3.53,3.37,0,*4C
1496221540.56,35046,19.75,74296.5,11.51,3.41,3.29,0,*43
1496221541.77,35047,19.75,74294.8,11.51,3.59,3.49,0,*4D
1496221543.0,35048,19.75,74294.3,11.51,2.85,2.69,0,*41
1496221544.23,35049,19.75,74296.3,11.49,2.43,2.27,0,*49
1496221545.46,35050,19.75,74296.0,11.47,1.67,1.55,0,*4C
1496221546.7,35051,19.75,74296.5,11.45,1.97,1.79,0,*4E
1496221547.94,35052,19.75,74294.3,11.43,2.81,2.81,0,*4B
1496221549.17,35053,19.75,74296.5,11.43,3.19,3.07,0,*45
1496221550.4,35054,19.75,74294.5,11.43,2.43,2.21,0,*49
1496221551.65,35055,19.75,74292.3,11.39,1.37,1.13,0,*47
1496221552.92,35056,19.75,74294.3,11.37,1.21,1.09,0,*46
1496221554.17,35057,19.75,74296.8,11.31,0.67,0.63,0,*4F
1496221555.39,35058,19.75,74296.8,11.29,0.25,0.29,0,*41
1496221556.62,35059,19.75,74302.0,11.25,0.47,0.47,0,*40
1496221557.8,35060,19.75,74296.3,11.21,1.01,1.01,0,*4E
1496221559.07,35061,19.75,74296.0,11.19,1.55,1.59,0,*48
1496221560.31,35062,19.75,74302.0,11.17,2.43,2.43,0,*49
1496221561.57,35063,19.75,74302.8,11.15,2.05,2.01,0,*4E
1496221562.79,35064,19.75,74300.0,11.13,1.75,1.85,0,*44
1496221564.06,35065,19.75,74302.5,11.11,1.29,1.13,0,*41
1496221565.33,35066,19.75,74298.5,11.07,1.33,1.21,0,*4F
1496221566.57,35067,19.75,74288.8,11.05,1.67,1.67,0,*4F
1496221567.83,35068,19.75,74286.3,11.03,2.13,1.93,0,*4D
1496221569.06,35069,19.75,74286.5,11.01,2.21,1.85,0,*48
1496221570.29,35070,19.75,74288.0,10.99,1.17,1.01,0,*4A
1496221571.55,35071,19.75,74284.3,10.95,1.33,1.21,0,*43
1496221572.8,35072,19.75,74286.5,10.95,2.89,2.85,0,*4F
1496221574.05,35073,19.75,74286.5,10.91,3.53,3.33,0,*40
1496221575.27,35074,19.75,74284.8,10.93,3.19,3.23,0,*4A
1496221576.48,35075,19.75,74286.3,10.95,4.37,4.37,0,*44
1496221577.72,35076,19.75,74280.8,10.95,3.81,3.75,0,*4C
1496221578.92,35077,19.75,74286.5,10.95,4.27,4.19,0,*4B
1496221580.12,35078,19.75,74286.3,10.97,3.97,3.93,0,*4F
1496221581.32,35079,19.75,74288.3,10.97,4.05,4.11,0,*4F
1496221582.5,35080,19.75,74284.0,10.97,4.41,4.33,0,*49
1496221583.67,35081,19.75,74286.5,10.97,4.57,4.49,0,*42
1496221584.86,35082,19.75,74288.3,10.97,4.49,4.63,0,*46
1496221586.03,35083,19.75,74290.0,10.97,4.23,4.11,0,*4E
1496221587.24,35084,19.75,74288.3,10.97,4.41,4.31,0,*4F
1496221588.44,35085,19.75,74286.8,10.95,4.37,4.27,0,*4A
1496221589.62,35086,19.75,74286.5,10.97,4.23,4.07,0,*4C
1496221590.82,35087,19.75,74284.0,10.97,4.31,4.11,0,*49
1496221591.99,35088,19.75,74290.5,10.97,4.41,4.23,0,*40
1496221593.16,35089,19.75,74288.8,10.97,4.49,4.23,0,*49
1496221594.32,35090,19.75,74286.5,10.97,4.49,4.11,0,*40
1496221595.49,35091,19.75,74290.0,10.97,4.19,3.85,0,*4E
1496221596.71,35092,19.75,74292.8,11.01,4.05,3.89,0,*42
1496221597.93,35093,19.81,74298.0,10.99,4.05,4.11,0,*45
1496221599.12,35094,19.75,74292.8,11.01,4.15,4.23,0,*42
1496221600.34,35095,19.75,74292.0,10.99,3.03,2.95,0,*48
1496221601.6,35096,19.81,74298.3,10.99,3.07,3.03,0,*41
1496221602.78,35097,19.75,74294.8,10.97,3.63,3.29,0,*44
1496221603.97,35098,19.75,74292.8,10.97,4.49,4.01,0,*49
1496221605.19,35099,19.75,74292.0,10.97,4.67,3.97,0,*4C
1496221606.38,35100,19.75,74292.8,10.99,4.49,3.29,0,*4A
1496221607.59,35101,19.75,74296.8,11.01,4.37,2.85,0,*45
1496221608.85,35102,19.75,74294.8,10.99,3.67,1.85,0,*47
1496221610.07,35103,19.75,74300.3,11.01,3.93,1.85,0,*4D
1496221611.31,35104,19.75,74298.8,10.99,3.79,1.63,0,*46
1496221612.51,35105,19.75,74302.5,11.05,4.15,1.83,0,*40
1496221613.75,35106,19.75,74306.3,11.05,3.67,1.09,0,*43
1496221614.96,35107,19.75,74302.8,11.07,2.99,0.05,0,*4D
1496221616.18,35108,19.75,74304.5,11.11,2.31,-1.29,0,*65
1496221617.44,35109,19.75,74306.8,11.11,1.47,-3.43,0,*68
1496221618.67,35110,19.75,74312.8,11.11,0.01,-6.93,0,*6B
1496221619.91,35111,19.75,74314.3,11.13,-3.15,-11.55,0,*7F
1496221621.15,35112,19.75,74316.5,11.15,-6.81,-15.11,0,*76
1496221622.39,35113,19.75,74310.0,11.13,-9.41,-15.29,0,*79
1496221623.61,35114,19.75,74304.5,11.15,-10.05,-13.43,0,*4A
1496221624.84,35115,19.75,74290.5,11.19,-9.97,-11.19,0,*79
1496221626.1,35116,19.75,74294.8,11.23,-10.85,-10.75,0,*43
1496221627.34,35117,19.75,74290.8,11.27,-11.23,-10.09,0,*40
1496221628.54,35118,19.75,74284.8,11.35,-10.89,-8.85,0,*70
1496221629.78,35119,19.75,74284.5,11.41,-11.37,-8.33,0,*7B
1496221630.99,35120,19.75,74288.0,11.47,-12.25,-8.59,0,*7B
1496221632.24,35121,19.75,74284.3,11.53,-11.59,-6.77,0,*75
1496221633.46,35122,19.75,74280.0,11.59,-11.67,-6.13,0,*73
1496221634.66,35123,19.75,74280.8,11.65,-12.03,-5.51,0,*79
1496221635.91,35124,19.75,74282.0,11.71,-11.85,-4.45,0,*72
1496221637.16,35125,19.75,74280.8,11.75,-11.85,-3.79,0,*7F
1496221638.41,35126,19.75,74278.8,11.79,-11.85,-3.11,0,*7E
1496221639.66,35127,19.75,74280.5,11.87,-11.41,-1.95,0,*78
1496221640.94,35128,19.75,74280.3,11.91,-11.93,-2.11,0,*70
1496221642.16,35129,19.75,74280.8,11.95,-12.03,-1.51,0,*78
1496221643.39,35130,19.75,74276.8,11.99,-13.43,-2.03,0,*7D
1496221644.6,35131,19.75,74282.3,11.99,-13.51,-1.79,0,*71
1496221645.82,35132,19.75,74280.3,11.97,-12.25,-0.53,0,*47
1496221647.04,35133,19.75,74282.0,12.01,-8.75,2.65,0,*6E
1496221648.31,35134,19.75,74280.3,12.05,-8.51,2.89,0,*69
1496221649.56,35135,19.75,74280.3,12.09,-7.39,3.79,0,*6B
1496221650.82,35136,19.75,74284.5,12.13,-4.93,5.55,0,*68
1496221652.05,35137,19.75,74282.8,12.17,-1.67,7.91,0,*69
1496221653.28,35138,19.75,74286.8,12.27,0.37,8.93,0,*71
1496221654.51,35139,19.75,74286.3,12.33,1.43,8.87,0,*42
1496221655.74,35140,19.75,74282.8,12.39,0.63,7.11,0,*75
1496221656.98,35141,19.75,74282.5,12.41,-1.17,4.59,0,*6B
1496221658.22,35142,19.75,74278.8,12.41,-1.21,3.67,0,*67
1496221659.46,35143,19.75,74280.3,12.41,0.55,4.57,0,*7D
1496221660.69,35144,19.75,74278.5,12.41,0.05,3.41,0,*4F
1496221661.95,35145,19.75,74276.0,12.37,-0.89,1.85,0,*5C
1496221663.22,35146,19.75,74278.3,12.37,1.13,3.53,0,*49
1496221664.45,35147,19.75,74280.0,12.33,0.83,2.95,0,*7F
1496221665.7,35148,19.75,74276.5,12.33,0.83,2.73,0,*78
1496221666.91,35149,19.75,74278.3,12.31,1.05,2.73,0,*44
1496221668.13,35150,19.75,74274.5,12.29,0.79,2.31,0,*79
1496221669.36,35151,19.75,74276.3,12.23,0.59,2.09,0,*7B
1496221670.61,35152,19.75,74272.5,12.21,0.95,2.05,0,*76
1496221671.84,35153,19.75,74276.3,12.17,1.51,2.65,0,*4D
1496221673.08,35154,19.75,74278.3,12.15,1.97,2.73,0,*45
1496221674.28,35155,19.75,74278.5,12.15,1.97,2.31,0,*42
1496221675.49,35156,19.75,74284.5,12.11,1.51,1.75,0,*4C
1496221676.72,35157,19.75,74286.8,12.11,2.69,2.59,0,*48
1496221677.95,35158,19.75,74294.3,12.09,2.09,1.75,0,*45
1496221679.15,35159,19.75,74292.0,12.09,2.35,1.75,0,*4B
1496221680.36,35160,19.75,74286.3,12.07,3.53,2.65,0,*4C
1496221681.56,35161,19.75,74286.3,12.07,4.79,3.85,0,*4D
1496221682.76,35162,19.75,74288.3,12.07,4.27,2.85,0,*44
1496221683.99,35163,19.81,74290.0,12.07,3.45,2.09,0,*42
1496221685.19,35164,19.75,74286.5,12.07,3.55,1.85,0,*43
1496221686.42,35165,19.75,74284.0,12.09,2.91,1.25,0,*4F
1496221687.67,35166,19.75,74284.5,12.01,2.89,0.95,0,*77
1496221688.9,35167,19.75,74290.0,12.05,3.81,1.67,0,*47
1496221690.12,35168,19.75,74286.3,12.05,4.19,1.67,0,*4E
1496221691.35,35169,19.75,74290.3,12.07,0.75,-2.55,0,*5C
1496221692.57,35170,19.75,74288.5,12.01,0.17,-3.23,0,*56
1496221693.8,35171,19.75,74290.3,11.97,-0.19,-3.55,0,*79
1496221695.03,35172,19.75,74288.3,11.97,-0.33,-3.71,0,*74
1496221696.23,35173,19.75,74286.5,11.93,-0.45,-3.71,0,*70
1496221697.44,35174,19.75,74284.8,11.91,-0.61,-3.79,0,*7B
1496221698.68,35175,19.75,74284.0,11.89,-1.39,-4.85,0,*4B
1496221699.9,35176,19.75,74288.0,11.89,-1.59,-5.23,0,*43
1496221701.15,35177,19.75,74286.8,11.85,-1.87,-5.15,0,*48
1496221702.4,35178,19.75,74290.5,11.85,-2.11,-4.89,0,*4F
1496221703.61,35179,19.75,74288.3,11.85,-2.07,-4.17,0,*4E
1496221704.86,35180,19.75,74288.0,11.85,-2.75,-4.93,0,*41
1496221706.13,35181,19.75,74284.8,11.87,-3.47,-5.89,0,*48
1496221707.41,35182,19.75,74284.3,11.87,-5.89,-7.77,0,*4C
1496221708.62,35183,19.75,74284.5,11.85,-7.77,-8.21,0,*40
1496221709.85,35184,19.75,74290.3,11.85,-9.05,-7.65,0,*43
1496221711.04,35185,19.75,74288.8,11.85,-9.89,-6.51,0,*40
1496221712.23,35186,19.75,74292.3,11.81,-9.31,-4.09,0,*4B
1496221713.45,35187,19.75,74290.3,11.81,-9.31,-2.67,0,*44
1496221714.71,35188,19.81,74298.3,11.87,-7.05,0.87,0,*55
1496221715.92,35189,19.75,74294.3,11.93,-5.07,2.99,0,*6C
1496221717.14,35190,19.75,74298.3,11.97,-3.75,4.27,0,*60